User: anonymous   Login
Location: Vancouver
(49.2500°N, 123.1330°W)
Time: 17:27:00
(UTC-08:00)
Language:

Iridium 35 - Orbit

View from above orbital plane
View from above orbital plane
View from above satellite
View from above satellite

Ground track
Ground track

The orbit data is extracted from the following two-line orbital elements,

1 24966U 97056B   18047.95278447 +.00000022 +00000-0 +63936-6 0  9997
2 24966 086.3961 216.3540 0002083 092.9485 267.1949 14.34216100067332
Epoch (UTC): 16 February 2018 22:52:00
Eccentricity: 0.0002083
inclination: 86.3961°
perigee height: 776 km
apogee height: 779 km
right ascension of ascending node: 216.3540°
argument of perigee: 92.9485°
revolutions per day: 14.34216100
mean anomaly at epoch: 267.1949°
orbit number at epoch: 6733

The dashed part of the orbit path shows where the satellite is in the earth's shadow,  

DLR